| time (UTC) | temp F | wind direction | speed knots | gust knots | rain 1hr in | rain 24hr in | rain mn in | humidity % | barometer mb |
| 20260506202038 | 81 | 148 | 2.6 | 13.9 | 0.00 | 0.00 | 0.00 | 23 | 1015.1 |
| 20260506201542 | 80 | 103 | 3.5 | 12.2 | 0.00 | 0.00 | 0.00 | 24 | 1015.0 |
| 20260506201037 | 81 | 59 | 3.5 | 7.0 | 0.00 | 0.00 | 0.00 | 22 | 1015.3 |
| 20260506200544 | 81 | 0 | 1.7 | 6.1 | 0.00 | 0.00 | 0.00 | 23 | 1015.2 |
| 20260506200054 | 81 | 0 | 0.0 | 7.0 | 0.00 | 0.00 | 0.00 | 23 | 1015.4 |
| 20260506195538 | 80 | 0 | 2.6 | 7.0 | 0.00 | 0.00 | 0.00 | 24 | 1015.4 |
| 20260506195038 | 80 | 131 | 0.9 | 6.1 | 0.00 | 0.00 | 0.00 | 24 | 1015.5 |
| 20260506194546 | 78 | 0 | 0.0 | 8.7 | 0.00 | 0.00 | 0.00 | 25 | 1015.5 |
| 20260506194038 | 78 | 0 | 1.7 | 8.7 | 0.00 | 0.00 | 0.00 | 25 | 1015.5 |
| 20260506193537 | 78 | 56 | 3.5 | 8.7 | 0.00 | 0.00 | 0.00 | 24 | 1015.6 |
| 20260506193054 | 78 | 0 | 0.0 | 6.1 | 0.00 | 0.00 | 0.00 | 25 | 1015.6 |
| 20260506192538 | 78 | 0 | 0.9 | 6.1 | 0.00 | 0.00 | 0.00 | 25 | 1015.7 |
| 20260506192038 | 79 | 68 | 0.9 | 5.2 | 0.00 | 0.00 | 0.00 | 25 | 1015.7 |
| 20260506191553 | 78 | 0 | 0.0 | 5.2 | 0.00 | 0.00 | 0.00 | 25 | 1015.8 |
| 20260506191039 | 78 | 0 | 0.0 | 5.2 | 0.00 | 0.00 | 0.00 | 25 | 1015.9 |
| 20260506190539 | 77 | 0 | 0.0 | 6.1 | 0.00 | 0.00 | 0.00 | 25 | 1015.9 |
| 20260506190053 | 77 | 54 | 0.9 | 6.1 | 0.00 | 0.00 | 0.00 | 25 | 1016.0 |
| 20260506185542 | 77 | 111 | 0.0 | 7.0 | 0.00 | 0.00 | 0.00 | 26 | 1016.1 |
| 20260506185038 | 76 | 167 | 0.9 | 8.7 | 0.00 | 0.00 | 0.00 | 26 | 1016.0 |
| 20260506184554 | 76 | 91 | 5.2 | 9.6 | 0.00 | 0.00 | 0.00 | 26 | 1016.1 |
| 20260506184040 | 76 | 90 | 1.7 | 9.6 | 0.00 | 0.00 | 0.00 | 26 | 1016.1 |
| 20260506183545 | 76 | 60 | 3.5 | 9.6 | 0.00 | 0.00 | 0.00 | 26 | 1016.1 |
| 20260506183100 | 77 | 105 | 2.6 | 10.4 | 0.00 | 0.00 | 0.00 | 26 | 1016.1 |
| 20260506182541 | 76 | 105 | 2.6 | 10.4 | 0.00 | 0.00 | 0.00 | 26 | 1016.1 |
| 20260506182042 | 76 | 0 | 0.0 | 7.0 | 0.00 | 0.00 | 0.00 | 26 | 1016.1 |
| 20260506181555 | 76 | 0 | 0.9 | 7.0 | 0.00 | 0.00 | 0.00 | 26 | 1016.0 |
| 20260506181039 | 76 | 136 | 1.7 | 7.0 | 0.00 | 0.00 | 0.00 | 27 | 1016.0 |
| 20260506180543 | 75 | 159 | 1.7 | 8.7 | 0.00 | 0.00 | 0.00 | 27 | 1016.1 |
| 20260506180054 | 75 | 136 | 5.2 | 8.7 | 0.00 | 0.00 | 0.00 | 27 | 1016.1 |
| 20260506175538 | 75 | 0 | 0.9 | 6.1 | 0.00 | 0.00 | 0.00 | 27 | 1016.1 |
| 20260506175042 | 75 | 72 | 0.0 | 6.1 | 0.00 | 0.00 | 0.00 | 28 | 1016.0 |
| 20260506174551 | 74 | 131 | 1.7 | 6.1 | 0.00 | 0.00 | 0.00 | 28 | 1016.1 |
| 20260506174038 | 75 | 0 | 0.9 | 7.8 | 0.00 | 0.00 | 0.00 | 28 | 1016.1 |
| 20260506173539 | 75 | 0 | 2.6 | 7.8 | 0.00 | 0.00 | 0.00 | 26 | 1016.2 |
| 20260506173048 | 75 | 37 | 3.5 | 7.8 | 0.00 | 0.00 | 0.00 | 27 | 1016.1 |
| 20260506172538 | 75 | 82 | 2.6 | 9.6 | 0.00 | 0.00 | 0.00 | 27 | 1016.0 |
| 20260506172041 | 75 | 360 | 5.2 | 10.4 | 0.00 | 0.00 | 0.00 | 27 | 1016.0 |
| 20260506171549 | 75 | 0 | 1.7 | 10.4 | 0.00 | 0.00 | 0.00 | 27 | 1016.0 |
| 20260506171038 | 74 | 345 | 3.5 | 10.4 | 0.00 | 0.00 | 0.00 | 27 | 1016.0 |
| 20260506170540 | 74 | 304 | 3.5 | 12.2 | 0.00 | 0.00 | 0.00 | 28 | 1016.0 |
| 20260506170054 | 74 | 318 | 4.3 | 12.2 | 0.00 | 0.00 | 0.00 | 28 | 1015.8 |
| 20260506165541 | 74 | 333 | 5.2 | 11.3 | 0.00 | 0.00 | 0.00 | 28 | 1015.9 |
| 20260506165039 | 74 | 333 | 5.2 | 11.3 | 0.00 | 0.00 | 0.00 | 28 | 1015.8 |
| 20260506164555 | 73 | 27 | 6.1 | 13.0 | 0.00 | 0.00 | 0.00 | 28 | 1015.8 |
| 20260506164039 | 73 | 302 | 6.1 | 13.0 | 0.00 | 0.00 | 0.00 | 28 | 1015.8 |
| 20260506163538 | 73 | 318 | 6.1 | 10.4 | 0.00 | 0.00 | 0.00 | 28 | 1015.8 |
| 20260506163051 | 73 | 326 | 5.2 | 10.4 | 0.00 | 0.00 | 0.00 | 27 | 1015.7 |
| 20260506162541 | 73 | 345 | 2.6 | 11.3 | 0.00 | 0.00 | 0.00 | 28 | 1015.7 |
| 20260506162041 | 72 | 330 | 5.2 | 11.3 | 0.00 | 0.00 | 0.00 | 28 | 1015.7 |
| 20260506161554 | 72 | 21 | 4.3 | 10.4 | 0.00 | 0.00 | 0.00 | 28 | 1015.6 |
| 20260506161038 | 72 | 23 | 6.1 | 10.4 | 0.00 | 0.00 | 0.00 | 28 | 1015.6 |
| 20260506160540 | 72 | 323 | 4.3 | 11.3 | 0.00 | 0.00 | 0.00 | 28 | 1015.6 |
| 20260506160055 | 71 | 269 | 3.5 | 12.2 | 0.00 | 0.00 | 0.00 | 28 | 1015.7 |
| 20260506155538 | 70 | 11 | 6.1 | 12.2 | 0.00 | 0.00 | 0.00 | 29 | 1015.6 |
| 20260506155038 | 69 | 0 | 1.7 | 6.1 | 0.00 | 0.00 | 0.00 | 33 | 1015.7 |
| 20260506154552 | 68 | 82 | 3.5 | 7.8 | 0.00 | 0.00 | 0.00 | 35 | 1015.7 |
| 20260506154038 | 68 | 23 | 2.6 | 7.8 | 0.00 | 0.00 | 0.00 | 33 | 1015.6 |
| 20260506153544 | 68 | 65 | 1.7 | 7.8 | 0.00 | 0.00 | 0.00 | 34 | 1015.6 |
| 20260506153045 | 67 | 34 | 2.6 | 7.8 | 0.00 | 0.00 | 0.00 | 35 | 1015.6 |
| 20260506152538 | 67 | 75 | 3.5 | 7.8 | 0.00 | 0.00 | 0.00 | 36 | 1015.5 |
| 20260506152038 | 67 | 74 | 0.9 | 7.8 | 0.00 | 0.00 | 0.00 | 36 | 1015.5 |
| 20260506151554 | 67 | 60 | 2.6 | 8.7 | 0.00 | 0.00 | 0.00 | 37 | 1015.4 |
| 20260506151038 | 67 | 0 | 4.3 | 8.7 | 0.00 | 0.00 | 0.00 | 34 | 1015.4 |
| 20260506150544 | 66 | 84 | 4.3 | 8.7 | 0.00 | 0.00 | 0.00 | 36 | 1015.4 |
| 20260506150056 | 66 | 65 | 4.3 | 8.7 | 0.00 | 0.00 | 0.00 | 37 | 1015.4 |
| 20260506145539 | 65 | 44 | 1.7 | 6.1 | 0.00 | 0.00 | 0.00 | 38 | 1015.4 |
| 20260506145039 | 65 | 67 | 0.0 | 6.1 | 0.00 | 0.00 | 0.00 | 39 | 1015.4 |
| 20260506144544 | 64 | 90 | 0.9 | 4.3 | 0.00 | 0.00 | 0.00 | 40 | 1015.3 |
| 20260506144040 | 64 | 53 | 0.9 | 4.3 | 0.00 | 0.00 | 0.00 | 39 | 1015.3 |
| 20260506143540 | 64 | 41 | 0.9 | 4.3 | 0.00 | 0.00 | 0.00 | 39 | 1015.2 |
| 20260506143050 | 64 | 41 | 0.9 | 6.1 | 0.00 | 0.00 | 0.00 | 38 | 1015.2 |
| 20260506142540 | 64 | 0 | 0.0 | 8.7 | 0.00 | 0.00 | 0.00 | 35 | 1015.1 |
| 20260506142040 | 64 | 25 | 3.5 | 11.3 | 0.00 | 0.00 | 0.00 | 34 | 1015.1 |
| 20260506141552 | 64 | 38 | 6.1 | 11.3 | 0.00 | 0.00 | 0.00 | 34 | 1015.0 |
| 20260506141039 | 63 | 32 | 2.6 | 6.1 | 0.00 | 0.00 | 0.00 | 35 | 1014.9 |
| 20260506140538 | 63 | 31 | 0.0 | 6.1 | 0.00 | 0.00 | 0.00 | 35 | 1014.9 |
| 20260506140052 | 62 | 335 | 0.9 | 7.0 | 0.00 | 0.00 | 0.00 | 35 | 1014.9 |
| 20260506135540 | 62 | 25 | 3.5 | 7.0 | 0.00 | 0.00 | 0.00 | 35 | 1014.9 |
| 20260506135038 | 62 | 0 | 2.6 | 7.0 | 0.00 | 0.00 | 0.00 | 35 | 1014.8 |
| 20260506134554 | 62 | 20 | 2.6 | 7.8 | 0.00 | 0.00 | 0.00 | 36 | 1014.8 |
| 20260506134042 | 62 | 51 | 4.3 | 7.8 | 0.00 | 0.00 | 0.00 | 35 | 1014.7 |
| 20260506133539 | 61 | 33 | 4.3 | 7.8 | 0.00 | 0.00 | 0.00 | 36 | 1014.6 |
| 20260506133059 | 61 | 40 | 2.6 | 7.8 | 0.00 | 0.00 | 0.00 | 35 | 1014.5 |
| 20260506132539 | 62 | 335 | 1.7 | 6.1 | 0.00 | 0.00 | 0.00 | 35 | 1014.4 |
| 20260506132043 | 62 | 4 | 0.9 | 6.1 | 0.00 | 0.00 | 0.00 | 35 | 1014.4 |
| 20260506131606 | 61 | 330 | 1.7 | 6.1 | 0.00 | 0.00 | 0.00 | 35 | 1014.3 |
| 20260506131039 | 61 | 320 | 2.6 | 6.1 | 0.00 | 0.00 | 0.00 | 35 | 1014.2 |
| 20260506130541 | 61 | 345 | 1.7 | 7.0 | 0.00 | 0.00 | 0.00 | 35 | 1014.1 |
| 20260506130053 | 61 | 335 | 2.6 | 7.0 | 0.00 | 0.00 | 0.00 | 35 | 1014.1 |
| 20260506125540 | 61 | 328 | 3.5 | 7.0 | 0.00 | 0.00 | 0.00 | 35 | 1014.0 |
| 20260506125040 | 61 | 0 | 3.5 | 7.0 | 0.00 | 0.00 | 0.00 | 36 | 1013.9 |
| 20260506124552 | 61 | 337 | 3.5 | 7.0 | 0.00 | 0.00 | 0.00 | 36 | 1013.9 |
| 20260506124045 | 61 | 360 | 1.7 | 6.1 | 0.00 | 0.00 | 0.00 | 36 | 1013.8 |
| 20260506123542 | 61 | 13 | 0.9 | 5.2 | 0.00 | 0.00 | 0.00 | 36 | 1013.8 |
| 20260506123049 | 61 | 10 | 2.6 | 6.1 | 0.00 | 0.00 | 0.00 | 36 | 1013.7 |
| 20260506122540 | 61 | 307 | 2.6 | 7.0 | 0.00 | 0.00 | 0.00 | 36 | 1013.7 |
| 20260506122040 | 61 | 25 | 2.6 | 7.0 | 0.00 | 0.00 | 0.00 | 35 | 1013.6 |
| 20260506121556 | 61 | 18 | 1.7 | 8.7 | 0.00 | 0.00 | 0.00 | 35 | 1013.6 |
| 20260506121040 | 61 | 347 | 3.5 | 8.7 | 0.00 | 0.00 | 0.00 | 35 | 1013.7 |
| 20260506120540 | 61 | 297 | 2.6 | 6.1 | 0.00 | 0.00 | 0.00 | 35 | 1013.6 |
| 20260506115539 | 61 | 354 | 1.7 | 7.8 | 0.00 | 0.00 | 0.00 | 35 | 1013.6 |
| 20260506115040 | 61 | 356 | 2.6 | 7.8 | 0.00 | 0.00 | 0.00 | 36 | 1013.5 |
| 20260506114555 | 60 | 4 | 3.5 | 6.1 | 0.00 | 0.00 | 0.00 | 36 | 1013.5 |
| 20260506114041 | 59 | 23 | 1.7 | 5.2 | 0.00 | 0.00 | 0.00 | 37 | 1013.5 |
| 20260506113538 | 59 | 27 | 0.9 | 4.3 | 0.00 | 0.00 | 0.00 | 37 | 1013.4 |
| 20260506113050 | 59 | 0 | 0.0 | 3.5 | 0.00 | 0.00 | 0.00 | 37 | 1013.4 |
| 20260506112540 | 59 | 0 | 0.0 | 4.3 | 0.00 | 0.00 | 0.00 | 38 | 1013.4 |
| 20260506112038 | 58 | 0 | 0.9 | 6.1 | 0.00 | 0.00 | 0.00 | 38 | 1013.4 |
| 20260506111551 | 58 | 349 | 0.9 | 6.1 | 0.00 | 0.00 | 0.00 | 39 | 1013.4 |
| 20260506111041 | 58 | 0 | 0.0 | 0.0 | 0.00 | 0.00 | 0.00 | 40 | 1013.3 |
| 20260506110538 | 58 | 0 | 0.0 | 0.0 | 0.00 | 0.00 | 0.00 | 41 | 1013.3 |
| 20260506110100 | 58 | 0 | 0.0 | 0.0 | 0.00 | 0.00 | 0.00 | 40 | 1013.1 |
| 20260506105538 | 58 | 0 | 0.0 | 0.0 | 0.00 | 0.00 | 0.00 | 40 | 1013.1 |
| 20260506105042 | 58 | 0 | 0.0 | 0.0 | 0.00 | 0.00 | 0.00 | 40 | 1013.0 |
| 20260506104558 | 58 | 0 | 0.0 | 2.6 | 0.00 | 0.00 | 0.00 | 40 | 1013.0 |
| 20260506104039 | 58 | 0 | 0.0 | 2.6 | 0.00 | 0.00 | 0.00 | 40 | 1013.0 |
| 20260506103541 | 58 | 0 | 0.0 | 2.6 | 0.00 | 0.00 | 0.00 | 40 | 1013.0 |
| 20260506103048 | 58 | 0 | 0.0 | 0.9 | 0.00 | 0.00 | 0.00 | 39 | 1012.9 |
| 20260506102539 | 58 | 0 | 0.0 | 0.9 | 0.00 | 0.00 | 0.00 | 39 | 1012.9 |
| 20260506102042 | 59 | 0 | 0.0 | 0.0 | 0.00 | 0.00 | 0.00 | 39 | 1012.8 |
| 20260506101554 | 59 | 0 | 0.0 | 0.0 | 0.00 | 0.00 | 0.00 | 39 | 1012.6 |
| 20260506101038 | 59 | 0 | 0.0 | 0.0 | 0.00 | 0.00 | 0.00 | 39 | 1012.5 |
| 20260506100538 | 59 | 0 | 0.0 | 0.0 | 0.00 | 0.00 | 0.00 | 39 | 1012.5 |
| 20260506095538 | 59 | 0 | 0.0 | 0.0 | 0.00 | 0.00 | 0.00 | 39 | 1012.3 |
| 20260506095039 | 59 | 0 | 0.0 | 0.0 | 0.00 | 0.00 | 0.00 | 39 | 1012.2 |
| 20260506094556 | 58 | 0 | 0.0 | 0.0 | 0.00 | 0.00 | 0.00 | 39 | 1012.2 |
| 20260506094040 | 59 | 0 | 0.0 | 0.0 | 0.00 | 0.00 | 0.00 | 39 | 1012.1 |
| 20260506093541 | 59 | 0 | 0.0 | 0.0 | 0.00 | 0.00 | 0.00 | 38 | 1012.1 |
| 20260506093051 | 59 | 0 | 0.0 | 0.0 | 0.00 | 0.00 | 0.00 | 38 | 1012.1 |
| 20260506092539 | 59 | 0 | 0.0 | 0.0 | 0.00 | 0.00 | 0.00 | 38 | 1012.0 |
| 20260506092041 | 60 | 0 | 0.0 | 0.0 | 0.00 | 0.00 | 0.00 | 37 | 1012.0 |
| 20260506091546 | 60 | 0 | 0.0 | 0.0 | 0.00 | 0.00 | 0.00 | 37 | 1012.0 |
| 20260506091039 | 60 | 0 | 0.0 | 0.0 | 0.00 | 0.00 | 0.00 | 37 | 1012.0 |
| 20260506090540 | 60 | 0 | 0.0 | 0.9 | 0.00 | 0.00 | 0.00 | 37 | 1012.1 |
| 20260506090051 | 60 | 0 | 0.0 | 0.9 | 0.00 | 0.00 | 0.00 | 37 | 1012.0 |
| 20260506085539 | 60 | 0 | 0.0 | 0.0 | 0.00 | 0.00 | 0.00 | 37 | 1012.0 |
| 20260506085040 | 61 | 0 | 0.0 | 0.0 | 0.00 | 0.00 | 0.00 | 37 | 1012.1 |
| 20260506084617 | 61 | 0 | 0.0 | 0.0 | 0.00 | 0.00 | 0.00 | 36 | 1012.1 |
| 20260506084040 | 62 | 0 | 0.0 | 0.0 | 0.00 | 0.00 | 0.00 | 36 | 1012.1 |
| 20260506083540 | 62 | 0 | 0.0 | 0.0 | 0.00 | 0.00 | 0.00 | 36 | 1012.1 |
| 20260506083051 | 62 | 0 | 0.0 | 0.0 | 0.00 | 0.00 | 0.00 | 36 | 1012.1 |
| 20260506082541 | 63 | 0 | 0.0 | 0.0 | 0.00 | 0.00 | 0.00 | 36 | 1012.0 |
| 20260506082040 | 63 | 0 | 0.0 | 3.5 | 0.00 | 0.00 | 0.00 | 35 | 1012.1 |
| 20260506081556 | 64 | 0 | 0.0 | 4.3 | 0.00 | 0.00 | 0.00 | 34 | 1012.0 |
| 20260506081040 | 65 | 0 | 0.0 | 5.2 | 0.00 | 0.00 | 0.00 | 32 | 1012.1 |
| 20260506080540 | 65 | 273 | 2.6 | 5.2 | 0.00 | 0.00 | 0.00 | 32 | 1012.0 |
| 20260506073046 | 66 | 341 | 0.0 | 3.5 | 0.00 | 0.00 | 0.00 | 30 | 1011.9 |
| 20260506072540 | 66 | 0 | 1.7 | 3.5 | 0.00 | 0.00 | 0.00 | 30 | 1011.9 |
| 20260506072042 | 66 | 290 | 1.7 | 3.5 | 0.00 | 0.00 | 0.00 | 30 | 1011.9 |
| 20260506071554 | 66 | 0 | 0.0 | 3.5 | 0.00 | 0.00 | 0.00 | 30 | 1011.9 |
| 20260506071040 | 66 | 323 | 0.9 | 3.5 | 0.00 | 0.00 | 0.00 | 30 | 1011.9 |
| 20260506070540 | 66 | 315 | 0.9 | 3.5 | 0.00 | 0.00 | 0.00 | 30 | 1011.9 |
| 20260506062040 | 67 | 0 | 0.0 | 0.9 | 0.00 | 0.00 | 0.00 | 30 | 1011.7 |
| 20260506061555 | 67 | 0 | 0.0 | 0.0 | 0.00 | 0.00 | 0.00 | 30 | 1011.6 |
| 20260506061041 | 67 | 0 | 0.0 | 2.6 | 0.00 | 0.00 | 0.00 | 30 | 1011.5 |
| 20260506060540 | 67 | 0 | 0.0 | 2.6 | 0.00 | 0.00 | 0.00 | 30 | 1011.5 |
| 20260506051040 | 67 | 0 | 0.0 | 0.0 | 0.00 | 0.00 | 0.00 | 32 | 1011.1 |
| 20260506050540 | 67 | 0 | 0.0 | 0.0 | 0.00 | 0.00 | 0.00 | 32 | 1011.0 |
| 20260506045039 | 68 | 0 | 0.0 | 0.0 | 0.00 | 0.00 | 0.00 | 32 | 1010.9 |
| 20260506044547 | 68 | 0 | 0.0 | 0.0 | 0.00 | 0.00 | 0.00 | 33 | 1010.8 |
| 20260506044045 | 68 | 0 | 0.0 | 0.0 | 0.00 | 0.00 | 0.00 | 33 | 1010.7 |
| 20260506043540 | 68 | 0 | 0.0 | 0.0 | 0.00 | 0.00 | 0.00 | 33 | 1010.6 |
| 20260506043052 | 68 | 0 | 0.0 | 0.0 | 0.00 | 0.00 | 0.00 | 33 | 1010.7 |
| 20260506042540 | 68 | 0 | 0.0 | 0.0 | 0.00 | 0.00 | 0.00 | 33 | 1010.6 |
| 20260506042041 | 69 | 0 | 0.0 | 0.0 | 0.00 | 0.00 | 0.00 | 33 | 1010.5 |
| 20260506041604 | 69 | 0 | 0.0 | 0.0 | 0.00 | 0.00 | 0.00 | 32 | 1010.4 |
| 20260506041040 | 69 | 0 | 0.0 | 0.0 | 0.00 | 0.00 | 0.00 | 31 | 1010.4 |
| 20260506040540 | 69 | 0 | 0.0 | 0.0 | 0.00 | 0.00 | 0.00 | 31 | 1010.3 |
| 20260506040052 | 69 | 0 | 0.0 | 0.0 | 0.00 | 0.00 | 0.00 | 31 | 1010.1 |
| 20260506035540 | 70 | 0 | 0.0 | 2.6 | 0.00 | 0.00 | 0.00 | 31 | 1010.1 |
| 20260506035040 | 70 | 0 | 0.0 | 2.6 | 0.00 | 0.00 | 0.00 | 30 | 1010.0 |
| 20260506034550 | 70 | 0 | 0.0 | 3.5 | 0.00 | 0.00 | 0.00 | 30 | 1009.9 |
| 20260506034043 | 70 | 0 | 0.0 | 3.5 | 0.00 | 0.00 | 0.00 | 30 | 1009.8 |
| 20260506033539 | 70 | 0 | 0.0 | 2.6 | 0.00 | 0.00 | 0.00 | 30 | 1009.6 |
| 20260506033052 | 70 | 0 | 0.0 | 3.5 | 0.00 | 0.00 | 0.00 | 30 | 1009.6 |
| 20260506032541 | 70 | 0 | 0.0 | 3.5 | 0.00 | 0.00 | 0.00 | 30 | 1009.5 |
| 20260506032041 | 70 | 0 | 0.0 | 2.6 | 0.00 | 0.00 | 0.00 | 29 | 1009.4 |
| 20260506031554 | 71 | 0 | 0.0 | 0.0 | 0.00 | 0.00 | 0.00 | 29 | 1009.3 |
| 20260506031040 | 71 | 0 | 0.0 | 1.7 | 0.00 | 0.00 | 0.00 | 29 | 1009.3 |
| 20260506030544 | 71 | 0 | 0.0 | 7.0 | 0.00 | 0.00 | 0.00 | 29 | 1009.1 |
| 20260506030052 | 71 | 0 | 0.0 | 7.8 | 0.00 | 0.00 | 0.00 | 28 | 1009.1 |
| 20260506025540 | 71 | 0 | 1.7 | 7.8 | 0.00 | 0.00 | 0.00 | 28 | 1009.0 |
| 20260506025042 | 72 | 0 | 0.0 | 6.1 | 0.00 | 0.00 | 0.00 | 27 | 1008.9 |
| 20260506024545 | 72 | 186 | 1.7 | 6.1 | 0.00 | 0.00 | 0.00 | 26 | 1008.9 |
| 20260506024040 | 72 | 169 | 2.6 | 6.1 | 0.00 | 0.00 | 0.00 | 26 | 1008.8 |
| 20260506023540 | 72 | 155 | 1.7 | 5.2 | 0.00 | 0.00 | 0.00 | 25 | 1008.8 |
| 20260506023103 | 72 | 0 | 0.9 | 6.1 | 0.00 | 0.00 | 0.00 | 25 | 1008.7 |
| 20260506022540 | 72 | 148 | 0.9 | 7.0 | 0.00 | 0.00 | 0.00 | 24 | 1008.7 |
| 20260506022040 | 73 | 172 | 0.9 | 7.0 | 0.00 | 0.00 | 0.00 | 24 | 1008.7 |
| 20260506021608 | 73 | 177 | 0.0 | 6.1 | 0.00 | 0.00 | 0.00 | 23 | 1008.7 |
| 20260506021044 | 73 | 201 | 2.6 | 6.1 | 0.00 | 0.00 | 0.00 | 23 | 1008.6 |
| 20260506020539 | 74 | 207 | 0.0 | 7.0 | 0.00 | 0.00 | 0.00 | 23 | 1008.5 |
| 20260506020050 | 74 | 193 | 2.6 | 7.8 | 0.00 | 0.00 | 0.00 | 23 | 1008.5 |
| 20260506015541 | 74 | 137 | 1.7 | 7.8 | 0.00 | 0.00 | 0.00 | 22 | 1008.4 |
| 20260506015044 | 75 | 194 | 1.7 | 7.0 | 0.00 | 0.00 | 0.00 | 21 | 1008.4 |
| 20260506014545 | 75 | 180 | 1.7 | 6.1 | 0.00 | 0.00 | 0.00 | 21 | 1008.4 |
| 20260506014045 | 75 | 0 | 2.6 | 6.1 | 0.00 | 0.00 | 0.00 | 21 | 1008.3 |
| 20260506013543 | 75 | 167 | 0.9 | 5.2 | 0.00 | 0.00 | 0.00 | 21 | 1008.2 |
| 20260506013057 | 75 | 0 | 0.9 | 6.1 | 0.00 | 0.00 | 0.00 | 21 | 1008.3 |
| 20260506012540 | 75 | 0 | 0.0 | 6.1 | 0.00 | 0.00 | 0.00 | 21 | 1008.4 |
| 20260506012041 | 74 | 0 | 1.7 | 7.0 | 0.00 | 0.00 | 0.00 | 22 | 1008.3 |
| 20260506011551 | 74 | 159 | 2.6 | 7.0 | 0.00 | 0.00 | 0.00 | 21 | 1008.3 |
| 20260506011040 | 75 | 154 | 2.6 | 7.0 | 0.00 | 0.00 | 0.00 | 21 | 1008.4 |
| 20260506010540 | 75 | 173 | 0.0 | 6.1 | 0.00 | 0.00 | 0.00 | 21 | 1008.2 |
| 20260506010057 | 75 | 127 | 0.9 | 6.1 | 0.00 | 0.00 | 0.00 | 21 | 1008.2 |
| 20260506005543 | 76 | 113 | 0.0 | 4.3 | 0.00 | 0.00 | 0.00 | 20 | 1008.2 |
| 20260506005039 | 76 | 0 | 0.0 | 7.0 | 0.00 | 0.00 | 0.00 | 21 | 1008.1 |
| 20260506004548 | 76 | 0 | 0.9 | 7.0 | 0.00 | 0.00 | 0.00 | 21 | 1008.2 |
| 20260506004040 | 75 | 174 | 0.9 | 4.3 | 0.00 | 0.00 | 0.00 | 22 | 1008.2 |
| 20260506003540 | 74 | 0 | 0.0 | 7.8 | 0.00 | 0.00 | 0.00 | 21 | 1008.1 |
| 20260506003047 | 75 | 0 | 1.7 | 8.7 | 0.00 | 0.00 | 0.00 | 21 | 1008.1 |
| 20260506002540 | 75 | 189 | 2.6 | 8.7 | 0.00 | 0.00 | 0.00 | 22 | 1008.1 |
| 20260506002041 | 75 | 160 | 3.5 | 7.8 | 0.00 | 0.00 | 0.00 | 21 | 1008.1 |
| 20260506001547 | 75 | 127 | 1.7 | 5.2 | 0.00 | 0.00 | 0.00 | 21 | 1008.1 |
| 20260506001041 | 75 | 0 | 0.0 | 5.2 | 0.00 | 0.00 | 0.00 | 22 | 1008.1 |
| 20260506000544 | 75 | 132 | 0.9 | 6.1 | 0.00 | 0.00 | 0.00 | 22 | 1008.0 |
| 20260506000054 | 74 | 0 | 0.9 | 6.1 | 0.00 | 0.00 | 0.00 | 22 | 1008.1 |
| 20260505235539 | 74 | 9 | 0.0 | 6.1 | 0.00 | 0.00 | 0.00 | 22 | 1008.0 |
| 20260505235040 | 75 | 28 | 1.7 | 6.1 | 0.00 | 0.00 | 0.00 | 22 | 1008.1 |
| 20260505234545 | 75 | 0 | 0.9 | 7.0 | 0.00 | 0.00 | 0.00 | 21 | 1008.0 |
| 20260505234041 | 75 | 138 | 0.0 | 7.0 | 0.00 | 0.00 | 0.00 | 21 | 1008.0 |
| 20260505233540 | 75 | 262 | 2.6 | 7.0 | 0.00 | 0.00 | 0.00 | 21 | 1008.0 |
| 20260505233050 | 75 | 0 | 0.0 | 5.2 | 0.00 | 0.00 | 0.00 | 21 | 1008.1 |
| 20260505232541 | 75 | 126 | 0.9 | 5.2 | 0.00 | 0.00 | 0.00 | 22 | 1008.1 |
| 20260505232044 | 75 | 0 | 0.0 | 5.2 | 0.00 | 0.00 | 0.00 | 22 | 1008.0 |
| 20260505231606 | 75 | 148 | 0.9 | 5.2 | 0.00 | 0.00 | 0.00 | 22 | 1008.0 |
| 20260505231040 | 74 | 138 | 0.0 | 5.2 | 0.00 | 0.00 | 0.00 | 23 | 1008.1 |
| 20260505230658 | 74 | 79 | 0.0 | 7.0 | 0.00 | 0.00 | 0.00 | 23 | 1008.3 |
| 20260505230048 | 73 | 91 | 1.7 | 9.6 | 0.00 | 0.00 | 0.00 | 23 | 1008.4 |
| 20260505225610 | 73 | 86 | 3.5 | 9.6 | 0.00 | 0.00 | 0.00 | 23 | 1008.5 |
| 20260505225040 | 73 | 73 | 0.0 | 11.3 | 0.00 | 0.00 | 0.00 | 23 | 1008.5 |
| 20260505224554 | 73 | 0 | 5.2 | 11.3 | 0.00 | 0.00 | 0.00 | 23 | 1008.7 |
| 20260505224039 | 73 | 65 | 4.3 | 10.4 | 0.00 | 0.00 | 0.00 | 23 | 1008.6 |
| 20260505223539 | 73 | 85 | 3.5 | 10.4 | 0.00 | 0.00 | 0.00 | 23 | 1008.7 |
| 20260505223054 | 73 | 82 | 3.5 | 10.4 | 0.00 | 0.00 | 0.00 | 23 | 1008.8 |
| 20260505222545 | 73 | 0 | 0.9 | 7.8 | 0.00 | 0.00 | 0.00 | 23 | 1008.8 |
| 20260505222040 | 73 | 71 | 4.3 | 7.8 | 0.00 | 0.00 | 0.00 | 22 | 1008.9 |
| 20260505221550 | 75 | 105 | 2.6 | 7.0 | 0.00 | 0.00 | 0.00 | 22 | 1008.9 |
| 20260505221041 | 75 | 142 | 1.7 | 6.1 | 0.00 | 0.00 | 0.00 | 22 | 1009.1 |
| 20260505220540 | 74 | 154 | 0.9 | 6.1 | 0.00 | 0.00 | 0.00 | 23 | 1009.1 |
| 20260505220058 | 74 | 124 | 0.9 | 10.4 | 0.00 | 0.00 | 0.00 | 23 | 1009.2 |
| 20260505215541 | 74 | 113 | 0.0 | 10.4 | 0.00 | 0.00 | 0.00 | 23 | 1009.2 |
| 20260505215040 | 74 | 228 | 3.5 | 9.6 | 0.00 | 0.00 | 0.00 | 23 | 1009.3 |
| 20260505214557 | 73 | 219 | 0.0 | 7.8 | 0.00 | 0.00 | 0.00 | 24 | 1009.2 |
| 20260505214040 | 72 | 0 | 2.6 | 7.8 | 0.00 | 0.00 | 0.00 | 24 | 1009.2 |
| 20260505213540 | 73 | 102 | 2.6 | 10.4 | 0.00 | 0.00 | 0.00 | 23 | 1009.4 |
| 20260505213052 | 73 | 106 | 5.2 | 10.4 | 0.00 | 0.00 | 0.00 | 24 | 1009.4 |
| 20260505212539 | 73 | 92 | 1.7 | 9.6 | 0.00 | 0.00 | 0.00 | 24 | 1009.4 |
| 20260505212041 | 73 | 0 | 0.9 | 10.4 | 0.00 | 0.00 | 0.00 | 24 | 1009.5 |
| 20260505211554 | 72 | 120 | 2.6 | 10.4 | 0.00 | 0.00 | 0.00 | 25 | 1009.6 |
| 20260505211043 | 72 | 108 | 4.3 | 9.6 | 0.00 | 0.00 | 0.00 | 25 | 1009.6 |
| 20260505210539 | 72 | 156 | 2.6 | 6.1 | 0.00 | 0.00 | 0.00 | 25 | 1009.8 |
| 20260505210051 | 73 | 110 | 1.7 | 9.6 | 0.00 | 0.00 | 0.00 | 25 | 1009.8 |
| 20260505205541 | 72 | 142 | 1.7 | 10.4 | 0.00 | 0.00 | 0.00 | 25 | 1009.8 |
| 20260505205041 | 73 | 197 | 4.3 | 10.4 | 0.00 | 0.00 | 0.00 | 24 | 1009.9 |
| 20260505204550 | 72 | 148 | 0.0 | 4.3 | 0.00 | 0.00 | 0.00 | 26 | 1009.9 |
| 20260505204041 | 72 | 0 | 0.0 | 5.2 | 0.00 | 0.00 | 0.00 | 25 | 1009.9 |
| 20260505203543 | 72 | 0 | 1.7 | 7.0 | 0.00 | 0.00 | 0.00 | 25 | 1010.0 |
| 20260505203106 | 73 | 0 | 1.7 | 10.4 | 0.00 | 0.00 | 0.00 | 25 | 1009.9 |
| 20260505202540 | 72 | 231 | 2.6 | 10.4 | 0.00 | 0.00 | 0.00 | 25 | 1009.9 |